Time,TemperatureF,DewpointF,PressureIn,WindDirection,WindDirectionDegrees,WindSpeedMPH,WindSpeedGustMPH,Humidity,HourlyPrecipIn,Conditions,Clouds,dailyrainin,SoftwareType,DateUTC
2013-01-01 00:30:00,4.7,-0.7,29.57,ENE,69,0.0,0.0,78,0.00,,,0.00,Wunderground v.1.13,2013-01-01 05:30:00,
2013-01-01 01:00:00,4.7,-0.7,29.56,ENE,69,0.0,0.0,78,0.00,,,0.00,Wunderground v.1.13,2013-01-01 06:00:00,
2013-01-01 01:30:00,4.8,-0.6,29.54,ENE,69,0.0,0.0,78,0.00,,,0.00,Wunderground v.1.13,2013-01-01 06:30:00,
2013-01-01 02:00:00,4.1,-1.5,29.53,ENE,69,0.0,0.0,77,0.00,,,0.00,Wunderground v.1.13,2013-01-01 07:00:00,
2013-01-01 02:30:00,2.6,-3.2,29.52,ENE,69,0.0,0.0,76,0.00,,,0.00,Wunderground v.1.13,2013-01-01 07:30:00,
2013-01-01 03:00:00,4.1,-0.7,29.51,ENE,69,0.0,0.0,80,0.00,,,0.00,Wunderground v.1.13,2013-01-01 08:00:00,
2013-01-01 03:30:00,5.8,1.2,29.50,ENE,69,0.0,0.0,81,0.00,,,0.00,Wunderground v.1.13,2013-01-01 08:30:00,
2013-01-01 04:00:00,7.4,2.8,29.49,NE,42,0.0,0.0,81,0.00,,,0.00,Wunderground v.1.13,2013-01-01 09:00:00,
2013-01-01 04:30:00,7.7,3.1,29.49,NE,42,0.0,0.0,81,0.00,,,0.00,Wunderground v.1.13,2013-01-01 09:30:00,
2013-01-01 05:00:00,8.3,3.7,29.48,NE,42,0.0,0.0,81,0.00,,,0.00,Wunderground v.1.13,2013-01-01 10:00:00,
2013-01-01 05:30:00,6.0,0.3,29.49,NE,42,0.0,0.0,77,0.00,,,0.00,Wunderground v.1.13,2013-01-01 10:30:00,
2013-01-01 06:00:00,3.4,-1.9,29.50,NE,42,0.0,0.0,78,0.00,,,0.00,Wunderground v.1.13,2013-01-01 11:00:00,
2013-01-01 06:30:00,1.8,-4.0,29.51,NE,42,0.0,0.0,76,0.00,,,0.00,Wunderground v.1.13,2013-01-01 11:30:00,
2013-01-01 07:00:00,1.8,-3.5,29.53,NE,42,0.0,0.0,78,0.00,,,0.00,Wunderground v.1.13,2013-01-01 12:00:00,
2013-01-01 07:30:00,6.7,2.9,29.53,NE,42,0.0,0.0,84,0.00,,,0.00,Wunderground v.1.13,2013-01-01 12:30:00,
2013-01-01 08:00:00,7.4,3.6,29.56,NE,54,1.0,1.0,84,0.00,,,0.00,Wunderground v.1.13,2013-01-01 13:00:00,
2013-01-01 08:30:00,14.0,9.0,29.57,East,97,3.0,8.0,80,0.00,,,0.00,Wunderground v.1.13,2013-01-01 13:30:00,
2013-01-01 08:59:00,14.3,6.6,29.58,SE,128,4.0,4.0,71,0.00,,,0.00,Wunderground v.1.13,2013-01-01 13:59:00,
2013-01-01 09:30:00,13.8,6.1,29.58,ENE,62,2.0,4.0,71,0.00,,,0.00,Wunderground v.1.13,2013-01-01 14:30:00,
2013-01-01 10:00:00,-999.9,-99.9,29.59,North,32767,-999.0,0.0,255,-99.99,,,0.00,Wunderground v.1.13,2013-01-01 15:00:00,
2013-01-01 10:30:00,-999.9,-99.9,29.59,SE,134,1.0,1.0,255,0.00,,,0.00,Wunderground v.1.13,2013-01-01 15:30:00,
2013-01-01 11:00:00,-999.9,-99.9,29.58,North,32767,-999.0,0.0,255,-99.99,,,0.00,Wunderground v.1.13,2013-01-01 16:00:00,
2013-01-01 11:30:00,15.4,2.9,29.57,ESE,113,4.0,4.0,57,0.00,,,0.00,Wunderground v.1.13,2013-01-01 16:30:00,
2013-01-01 12:00:00,-999.9,-99.9,29.58,North,32767,-999.0,0.0,255,-99.99,,,0.00,Wunderground v.1.13,2013-01-01 17:00:00,
2013-01-01 12:30:00,15.2,2.3,29.56,ESE,102,8.0,13.0,56,0.00,,,0.00,Wunderground v.1.13,2013-01-01 17:30:00,
2013-01-01 13:00:00,13.8,0.6,29.56,East,92,2.0,2.0,55,0.00,,,0.00,Wunderground v.1.13,2013-01-01 18:00:00,
2013-01-01 13:30:00,-999.9,-99.9,29.57,North,32767,-999.0,0.0,255,-99.99,,,0.00,Wunderground v.1.13,2013-01-01 18:30:00,
2013-01-01 14:00:00,-999.9,-99.9,29.58,North,32767,-999.0,0.0,255,-99.99,,,0.00,Wunderground v.1.13,2013-01-01 19:00:00,
2013-01-01 14:29:00,12.4,-0.7,29.59,ESE,102,11.0,11.0,55,0.00,,,0.00,Wunderground v.1.13,2013-01-01 19:29:00,
2013-01-01 15:00:00,10.7,-2.3,29.60,SE,128,3.0,6.0,55,0.00,,,0.00,Wunderground v.1.13,2013-01-01 20:00:00,
2013-01-01 15:30:00,9.5,-3.4,29.60,ENE,64,3.0,3.0,55,0.00,,,0.00,Wunderground v.1.13,2013-01-01 20:30:00,
2013-01-01 16:00:00,-999.9,-99.9,29.61,North,32767,-999.0,0.0,255,-99.99,,,0.00,Wunderground v.1.13,2013-01-01 21:00:00,
2013-01-01 16:30:00,6.5,-4.8,29.62,East,99,2.0,2.0,59,0.00,,,0.00,Wunderground v.1.13,2013-01-01 21:30:00,
2013-01-01 18:00:00,3.0,-6.1,29.65,ESE,107,2.0,2.0,65,0.00,,,0.00,Wunderground v.1.13,2013-01-01 23:00:00,
2013-01-01 18:30:00,2.8,-6.6,29.66,ENE,65,2.0,5.0,64,0.00,,,0.00,Wunderground v.1.13,2013-01-01 23:30:00,
2013-01-01 19:00:00,1.8,-7.6,29.66,ENE,71,2.0,2.0,64,0.00,,,0.00,Wunderground v.1.13,2013-01-02 00:00:00,
2013-01-01 19:30:00,0.9,-8.8,29.66,East,99,1.0,1.0,63,0.00,,,0.00,Wunderground v.1.13,2013-01-02 00:30:00,
2013-01-01 20:00:00,-0.2,-8.9,29.67,East,89,0.0,0.0,66,0.00,,,0.00,Wunderground v.1.13,2013-01-02 01:00:00,
2013-01-01 20:30:00,-1.0,-9.3,29.66,NE,51,1.0,1.0,67,0.00,,,0.00,Wunderground v.1.13,2013-01-02 01:30:00,
2013-01-01 21:00:00,-0.4,-8.8,29.66,ESE,107,0.0,0.0,67,0.00,,,0.00,Wunderground v.1.13,2013-01-02 02:00:00,
2013-01-01 21:30:00,-999.9,-99.9,29.57,North,32767,-999.0,0.0,255,-99.99,,,0.00,Wunderground v.1.13,2013-01-02 02:30:00,
2013-01-01 22:00:00,-999.9,-99.9,29.58,ESE,116,0.0,0.0,255,0.00,,,0.00,Wunderground v.1.13,2013-01-02 03:00:00,
2013-01-01 22:30:00,-1.2,-99.9,29.69,ESE,110,2.0,2.0,255,0.00,,,0.00,Wunderground v.1.13,2013-01-02 03:30:00,
2013-01-01 23:00:00,-999.9,-99.9,29.59,North,32767,-999.0,0.0,255,-99.99,,,0.00,Wunderground v.1.13,2013-01-02 04:00:00,
2013-01-01 23:30:00,-999.9,-99.9,29.59,ENE,78,3.0,3.0,255,0.00,,,0.00,Wunderground v.1.13,2013-01-02 04:30:00,